Starlink 4027

operational
NORAD ID: 52601 Int'l Des: 2022-052 Owner: SPXS Country: US Constellation: starlink
LEOCIRCULAR

关于 Starlink 4027

正在加载描述...

实时位置

正在加载3D地球...

即将过境

高度历史

Altitude vs Time

uPlot chart will show altitude changes over time

两行轨道根数

1 52601U 22052D 25296.94734224 -.00001527 00000-0 -77888-4 0 9993
2 52601 53.2175 172.9798 0001608 94.6285 265.4891 15.08841863191012
Epoch: Oct 23, 2025 • Age: 21 hours

当前状态

高度 539.8 km
速度 7.60 km/s
星下点 22.08°N, 3.15°W
发射日期 May 14, 2022
运行时间 3.4 years
类型 internet

技术详情

分类 Payload
质量 297.00 kg
干质量 275.00 kg
总质量 297.00 kg
长度 0.20 m
直径 2.80 m
跨度 9.00 m
形状 Box + pan
制造商 SPXS
平台类型 Starlink
阶段状态 In Orbit
所有者/国家 SPXS/US

大型星座

Loading constellations...